Flag for Germany Weather for the Past 2 Weeks in Neustadt am Rübenberge, Lower Saxony, Germany

Now
41 °F

Partly sunny.


Feels Like: 34 °F
Forecast: 38 / 43 °F
Wind: 12 mph from Southwest

Location: Wunstorf Airport

Current Time: Feb 10, 2016 at 4:56:47 PM

Latest Report: Feb 10, 2016 at 4:20 PM


Visibility: N/A

Pressure: 29.30 "Hg

Humidity: 87%

Dew point: 37 °F

Location of Neustadt am RübenbergeLocation

Historic Weather in Neustadt am Rübenberge — Graph

°F

Neustadt am Rübenberge Temperature Yesterday

Maximum temperature yesterday: 48 °F (at 7:20 PM)
Minimum temperature yesterday: 34 °F (at 11:20 PM)
Average temperature yesterday: 44 °F

High & Low Weather Summary for the Past Weeks

 TemperatureHumidityPressure
High54 °F (Jan 27, 4:20 PM)100% (Jan 31, 9:20 PM)30.24 "Hg (Jan 31, 9:20 PM)
Low34 °F (Feb 9, 11:20 PM)58% (Feb 2, 10:20 AM)28.77 "Hg (Feb 9, 8:20 PM)
Average45 °F80%29.78 "Hg
* Reported Jan 26 3:20 PM — Feb 10 3:20 PM, Neustadt am Rübenberge, Weather by CustomWeather, © 2016

Note: Actual official high and low records may vary slightly from our data, if they occured in-between our weather recording intervals... More about our weather records

Advertising

Neustadt am Rübenberge Weather History for the Previous 24 Hours

 ConditionsComfort  
Time TempWeatherWind HumidityBarometerVisibility
3:20 PM
Wed, Feb 10
39 °FPartly sunny.14 mph93%29.27 "HgN/A
2:20 PM39 °FSprinkles. Broken clouds.15 mph87%29.27 "HgN/A
1:20 PM39 °FSprinkles. Broken clouds.12 mph87%29.27 "HgN/A
12:20 PM39 °FPartly sunny.14 mph87%29.27 "HgN/A
11:20 AM39 °FPartly sunny.14 mph87%29.24 "HgN/A
10:20 AM37 °FPartly sunny.8 mph93%29.24 "HgN/A
9:20 AM37 °FSprinkles. Partly sunny.14 mph87%29.24 "Hg4 mi
8:20 AM37 °FSprinkles. Partly sunny.8 mph87%29.21 "HgN/A
7:20 AM37 °FPassing clouds.13 mph81%29.21 "HgN/A
6:20 AM37 °FPartly cloudy.10 mph87%29.18 "HgN/A
5:20 AM37 °FChilly.15 mph87%29.18 "Hg5 mi
4:20 AM37 °FChilly.12 mph87%29.18 "Hg5 mi
3:20 AM37 °FChilly.14 mph87%29.18 "Hg5 mi
2:20 AM37 °FChilly.15 mph87%29.15 "Hg5 mi
1:20 AM37 °FChilly.18 mph87%29.15 "Hg3 mi
12:20 AM36 °FChilly.17 mph93%29.12 "Hg1 mi
11:20 PM
Tue, Feb 9
34 °FChilly.23 mph100%29.03 "Hg1 mi
10:20 PM36 °FChilly.28 mph93%28.91 "Hg1 mi
9:20 PM39 °FChilly.26 mph81%28.82 "Hg4 mi
8:20 PM48 °FCool.21 mph76%28.77 "Hg5 mi
7:20 PM48 °FPartly cloudy.21 mph76%28.80 "HgN/A
6:20 PM45 °FPassing clouds.16 mph87%28.82 "HgN/A
5:20 PM43 °FPartly sunny.17 mph87%28.88 "HgN/A
4:20 PM41 °FLight rain. Partly sunny.18 mph93%28.94 "HgN/A
Weather by CustomWeather, © 2016

See weather overviewHow to use our weather pages